Retour au catalogue

INSAT 4A

ActifCommunicationsGEO
NORAD 28911·PAYLOAD·🇮🇳 India

Lancé Dec 21, 2005 depuis Guiana Space Centre

Loading…

TLE

FraisSource: Space-Track

Époque: Sep 14, 2026, 14:07 UTC

1 28911U 05049A   26257.58862106  .00000075  00000-0  00000-0 0  9999
2 28911   6.6604  70.6233 0007300 134.1912  68.8453  0.99195707 46312

Suivez INSAT 4A en temps réel avec AllMySat

Download on the App Store